Station 41047 - NE BAHAMAS - 350 NM ENE of Nassau, Bahamas Image indicating link to RSS feed of recent meteorological observations for station 41047


Conditions at 41047 as of
(4:00 pm EDT)
2000 GMT on 05/28/2024:
     

Click on the graph icon in the table below to see a time series plot of the last five days of that observation.

5-day plot - Wind Direction Wind Direction (WDIR): SE ( 140 deg true )
5-day plot - Wind Speed Wind Speed (WSPD): 5.8 kts
5-day plot - Wind Gust Wind Gust (GST): 7.8 kts
5-day plot - Atmospheric Pressure Atmospheric Pressure (PRES):30.09 in
5-day plot - Pressure Tendency Pressure Tendency (PTDY):+0.00 in ( Steady )
5-day plot - Air Temperature Air Temperature (ATMP): 79.3 °F
5-day plot - Water Temperature Water Temperature (WTMP): 79.7 °F
5-day plot - Dew Point Dew Point (DEWP): 74.5 °F
5-day plot - Heat Index Heat Index (HEAT): 83.3 °F
5-day plot - Wind Speed at 10 Meters Wind Speed at 10 meters (WSPD10M): 5.8 kts
5-day plot - Wind Speed at 20 Meters Wind Speed at 20 meters (WSPD20M): 5.8 kts
5-day plot -  Wind Speed, Wind Gust and Atmospheric Pressure Combined plot of Wind Speed, Gust, and Air Pressure
Supplemental Measurements
Highest 1-minute Wind Speed
Time (EDT)5-day plot - 1-Minute Wind Speed WSPD 5-day plot - 1-Minute Wind Direction WDIR
3:51 pm 7.8 kts-
Previous observations
TIME
(EDT)
5-day plot - Wind Direction
WDIR
 
5-day plot - Wind Speed
WSPD
kts
5-day plot - Wind Gust
GST
kts
5-day plot - Wave Height
WVHT
ft
5-day plot - Dominant Wave Period
DPD
sec
5-day plot - Average Wave Period
APD
sec
5-day plot - Mean Wave Direction
MWD
 
5-day plot - Atmospheric Pressure
PRES
in
5-day plot - Pressure Tendency
PTDY
in
5-day plot - Air Temperature
ATMP
°F
5-day plot - Water Temperature
WTMP
°F
5-day plot - Dew Point
DEWP
°F
5-day plot - Salinity
SAL
psu
5-day plot - Visibility
VIS
nmi
5-day plot - Tide (above MLLW)
TIDE
ft
2024-05-28 03:50 pmSSE 5.8 7.8 2.6 95.2ESE30.09- 79.5 79.7 74.5---
2024-05-28 03:40 pmSSE 5.8 7.8 2.6-5.2ESE30.10- 79.5 79.7 74.5---
2024-05-28 03:30 pmSSE 5.8 7.8----30.10- 79.3 79.9 74.5---
2024-05-28 03:20 pm SE 7.8 7.8 2.3 85.1 SE30.10- 79.5 79.7 74.8---
2024-05-28 03:10 pmSSE 5.8 7.8 2.3-5.1 SE30.10- 79.3 79.7 74.3---
2024-05-28 03:00 pmSSE 5.8 7.8----30.11+0.00 79.3 79.7 74.1---
2024-05-28 02:50 pmSSE 5.8 7.8 2.3-4.9 SE30.10- 79.3 79.7 74.1---
2024-05-28 02:40 pmSSE 5.8 7.8----30.11- 79.2 79.5 73.8---
2024-05-28 02:30 pmSSE 5.8 7.8----30.11- 79.2 79.5 73.8---
2024-05-28 02:20 pmSSE 7.8 7.8 2.3 84.9 E30.11- 79.2 79.5 73.9---
2024-05-28 02:10 pmSSE 7.8 7.8----30.11- 79.0 79.5 73.8---
2024-05-28 02:00 pmSSE 7.8 9.7----30.11+0.00 78.8 79.5 73.6---
2024-05-28 01:50 pmSSE 7.8 9.7 2.6 95.0 SE30.10- 78.8 79.5 73.6---
2024-05-28 01:40 pmSSE 7.8 9.7----30.10- 78.8 79.5 73.4---
2024-05-28 01:30 pmSSE 7.8 9.7----30.10- 78.8 79.5 73.4---
2024-05-28 01:20 pmSSE 7.8 7.8 2.3 85.1ESE30.10- 78.6 79.5 73.4---
2024-05-28 01:10 pmSSE 7.8 9.7 2.3-5.1ESE30.10- 78.6 79.5 73.4---
2024-05-28 01:00 pmSSE 7.8 9.7----30.10+0.00 78.6 79.5 73.4---
2024-05-28 12:50 pmSSE 7.8 9.7 2.3 124.8 NE30.09- 78.6 79.5 73.4---
2024-05-28 12:40 pmSSE 7.8 9.7----30.09- 78.4 79.3 73.2---
2024-05-28 12:30 pmSSE 7.8 9.7----30.10- 78.6 79.3 73.4---
2024-05-28 12:20 pmSSE 7.8 9.7 2.3 114.6ENE30.10- 78.6 79.3 73.2---
2024-05-28 12:10 pmSSE 7.8 9.7 2.3-4.6ENE30.10- 78.4 79.3 73.2---
2024-05-28 12:00 pmSSE 7.8 11.7----30.10-0.01 78.4 79.2 73.6---
2024-05-28 11:50 amSSE 9.7 11.7 2.3 84.6ESE30.10- 78.4 79.0 73.8---
2024-05-28 11:40 amSSE 7.8 9.7----30.10- 78.4 79.0 73.8---
2024-05-28 11:30 amSSE 7.8 9.7----30.11- 78.4 79.0 73.8---
2024-05-28 11:20 amSSE 7.8 9.7 2.3 124.5 NE30.11- 78.4 78.8 73.4---
2024-05-28 11:10 amSSE 7.8 9.7 2.3-4.5 NE30.10- 78.4 78.8 73.4---
2024-05-28 11:00 amSSE 9.7 11.7----30.10-0.01 78.3 78.8 73.2---
2024-05-28 10:50 am SE 9.7 11.7 2.3 84.7 SE30.10- 78.3 78.8 73.4---
2024-05-28 10:40 am SE 9.7 11.7----30.10- 78.3 78.8 73.4---
2024-05-28 10:30 am SE 9.7 13.6----30.10- 78.4 78.8 73.6---
2024-05-28 10:20 am SE 9.7 13.6 2.3 124.7 SW30.10- 78.3 78.8 73.4---
2024-05-28 10:10 amSSE 9.7 11.7 2.3-4.7 SW30.10- 78.3 78.8 73.6---
2024-05-28 10:00 amSSE 9.7 11.7----30.10+0.00 78.3 78.6 73.4---
2024-05-28 09:50 amSSE 11.7 13.6 2.3 44.3SSE30.10- 78.3 78.6 73.4---
2024-05-28 09:40 amSSE 9.7 11.7----30.11- 78.3 78.6 73.4---
2024-05-28 09:30 amSSE 9.7 11.7----30.11- 78.3 78.6 73.4---
2024-05-28 09:20 amSSE 9.7 11.7 2.3 114.6 NE30.11- 78.3 78.6 73.6---
2024-05-28 09:10 amSSE 9.7 11.7 2.3-4.6 NE30.11- 78.3 78.6 73.8---
2024-05-28 09:00 amSSE 9.7 13.6----30.11+0.02 78.1 78.6 73.4---
2024-05-28 08:50 amSSE 9.7 11.7 2.3 114.5 NE30.11- 78.3 78.6 73.9---
2024-05-28 08:40 amSSE 9.7 11.7----30.11- 78.3 78.6 73.6---
2024-05-28 08:30 am SE 9.7 11.7----30.11- 78.3 78.6 73.6---
2024-05-28 08:20 amSSE 9.7 11.7 2.3 84.5ESE30.11- 78.3 78.6 73.6---
2024-05-28 08:10 amSSE 11.7 13.6 2.3-4.5ESE30.11- 78.1 78.6 73.6---
2024-05-28 08:00 amSSE 9.7 13.6----30.11+0.04 78.3 78.6 73.8---
2024-05-28 07:50 amSSE 9.7 11.7 2.3 84.4 SE30.11- 78.3 78.6 73.8---
2024-05-28 07:40 amSSE 9.7 11.7----30.11- 78.1 78.6 73.6---
2024-05-28 07:30 amSSE 9.7 11.7----30.11- 78.1 78.6 73.6---
2024-05-28 07:20 amSSE 9.7 11.7 2.3 84.4ESE30.11- 78.3 78.4 73.8---
2024-05-28 07:10 amSSE 9.7 11.7 2.3-4.4ESE30.11- 78.3 78.4 73.6---
2024-05-28 07:00 amSSE 7.8 9.7----30.11+0.02 78.1 78.4 73.4---
2024-05-28 06:50 amSSE 7.8 9.7 2.3 84.4 SE30.11- 78.1 78.4 73.2---
2024-05-28 06:40 amSSE 7.8 9.7----30.11- 78.1 78.4 73.6---
2024-05-28 06:30 amSSE 9.7 11.7----30.10- 77.9 78.4 73.2---
2024-05-28 06:20 amSSE 9.7 11.7 2.3 124.6ENE30.10- 77.9 78.4 73.2---
2024-05-28 06:10 amSSE 9.7 11.7 2.3-4.6ENE30.10- 77.9 78.4 73.4---
2024-05-28 06:00 amSSE 9.7 11.7----30.09+0.01 77.9 78.3 73.2---
2024-05-28 05:50 amSSE 9.7 11.7 2.3 84.6ESE30.09- 77.9 78.3 73.0---
2024-05-28 05:40 amSSE 9.7 11.7----30.09- 77.9 78.3 73.2---
2024-05-28 05:30 amSSE 9.7 11.7----30.09- 77.9 78.3 73.0---
2024-05-28 05:20 amSSE 9.7 11.7 2.3 114.6ENE30.08- 77.9 78.3 73.0---
2024-05-28 05:10 amSSE 9.7 11.7 2.3-4.6ENE30.08- 77.9 78.3 73.2---
2024-05-28 05:00 amSSE 9.7 13.6----30.08-0.02 77.9 78.4 73.6---
2024-05-28 04:50 amSSE 9.7 13.6 2.3 84.4 SE30.08- 77.9 78.4 73.8---
2024-05-28 04:40 amSSE 11.7 13.6----30.07- 77.7 78.4 73.2---
2024-05-28 04:30 amSSE 11.7 13.6----30.07- 77.7 78.4 73.2---
2024-05-28 04:20 amSSE 11.7 13.6 2.3 114.7ENE30.07- 77.9 78.4 73.4---
2024-05-28 04:10 am SE 9.7 11.7 2.3-4.7ENE30.07- 77.7 78.6 73.0---
2024-05-28 04:00 amSSE 7.8 9.7----30.08-0.03 77.9 78.6 73.2---
2024-05-28 03:50 am SE 7.8 9.7 2.3 84.2 SE30.09- 77.9 78.6 73.0---
2024-05-28 03:40 amSSE 9.7 11.7 2.3-4.2 SE30.08- 77.9 78.6 73.2---
2024-05-28 03:30 am SE 9.7 11.7----30.08- 77.9 78.6 73.0---
2024-05-28 03:20 am SE 11.7 13.6 2.6 84.5 SE30.07- 77.9 78.6 72.9---
2024-05-28 03:10 am SE 11.7 13.6 2.6-4.5 SE30.07- 77.7 78.4 72.9---
2024-05-28 03:00 am SE 11.7 13.6----30.08-0.03 77.7 78.4 73.2---
2024-05-28 02:50 am SE 11.7 15.5 2.3 74.5 SE30.08- 77.9- 73.2---
2024-05-28 02:40 am SE 11.7 13.6----30.08- 77.9 78.4 73.4---
2024-05-28 02:30 am SE 11.7 13.6----30.08- 77.9 78.4 73.2---
2024-05-28 02:20 am SE 11.7 13.6 2.3 84.5 SE30.08- 77.7 78.6 73.0---
2024-05-28 02:10 am SE 9.7 13.6 2.3-4.5 SE30.09- 77.9 78.6 73.2---
2024-05-28 02:00 am SE 9.7 11.7----30.09-0.01 77.9 78.6 73.2---
2024-05-28 01:50 am SE 9.7 11.7 2.6 84.8 SE30.10- 77.9 78.6 73.0---
2024-05-28 01:40 am SE 9.7 11.7----30.10- 77.9 78.6 73.2---
2024-05-28 01:30 am SE 9.7 11.7----30.11- 77.9 78.3 72.9---
2024-05-28 01:20 am SE 9.7 11.7 2.3 84.6ESE30.11- 77.9 78.1 73.2---
2024-05-28 01:10 am SE 9.7 11.7 2.3-4.6ESE30.11- 77.9 78.3 72.7---
2024-05-28 01:00 am SE 9.7 11.7----30.11+0.00 77.9 78.3 73.0---
2024-05-28 12:50 am SE 9.7 13.6 2.3 84.5 SE30.11- 78.1 78.3 73.0---
2024-05-28 12:40 amSSE 9.7 13.6----30.11- 78.1 78.3 72.7---
2024-05-28 12:30 amSSE 9.7 11.7----30.12- 78.1 78.3 72.9---
2024-05-28 12:20 am SE 11.7 13.6 2.6 84.6 SE30.11- 78.1 78.4 73.0---
2024-05-28 12:10 am SE 11.7 15.5 2.6-4.6 SE30.10- 78.1 78.4 72.7---
2024-05-28 12:00 am SE 11.7 15.5----30.11-0.01 78.1 78.4 72.9---
2024-05-27 11:50 pm SE 13.6 17.5 2.3 74.6 SE30.10- 78.1 78.4 72.9---
2024-05-27 11:40 pm SE 13.6 15.5----30.10- 78.1 78.4 72.7---
2024-05-27 11:30 pm SE 13.6 15.5----30.11- 78.1 78.6 72.7---
2024-05-27 11:20 pm SE 13.6 15.5 2.3 84.9ESE30.10- 78.1 78.6 73.0---
2024-05-27 11:10 pm SE 13.6 17.5 2.3-4.9ESE30.10- 78.1 78.8 72.7---
2024-05-27 11:00 pm SE 13.6 15.5----30.11+0.00 78.1 79.0 72.7---
2024-05-27 10:50 pm SE 11.7 15.5 2.3 85.4ESE30.11- 78.3 79.0 73.2---
2024-05-27 10:40 pmESE 13.6 15.5 2.3-5.4ESE30.11- 78.3 79.2 72.7---
2024-05-27 10:30 pmESE 11.7 15.5----30.11- 78.3 79.2 72.3---
2024-05-27 10:20 pmESE 11.7 13.6 2.3 85.4 SE30.11- 78.1 79.2 72.7---
2024-05-27 10:10 pmESE 11.7 13.6 2.3-5.4 SE30.11- 78.1 79.2 72.9---
2024-05-27 10:00 pmESE 11.7 13.6----30.11+0.00 78.3 79.2 72.7---
2024-05-27 09:50 pmESE 9.7 11.7 2.0 85.5 SE30.11- 78.3 79.3 72.5---
2024-05-27 09:40 pmESE 9.7 11.7----30.11- 78.4 79.3 72.1---
2024-05-27 09:30 pmESE 9.7 11.7----30.11- 78.3 79.3 72.5---
2024-05-27 09:20 pmESE 9.7 11.7 2.3 75.9 SE30.11- 78.3 79.3 72.9---
2024-05-27 09:10 pmESE 9.7 11.7 2.3-5.9 SE30.11- 78.3 79.3 72.7---
2024-05-27 09:00 pmESE 7.8 9.7----30.11+0.02 78.4 79.5 72.7---
2024-05-27 08:50 pmESE 7.8 9.7 2.0 85.7ESE30.11- 78.4 79.5 72.3---
2024-05-27 08:40 pmESE 7.8 9.7----30.11- 78.3 79.5 72.5---
2024-05-27 08:30 pmESE 7.8 9.7----30.11- 78.4 79.5 72.3---
2024-05-27 08:20 pmESE 9.7 9.7 2.0 136.1 NE30.11- 78.3 79.5 72.1---
2024-05-27 08:10 pmESE 7.8 9.7 2.0-6.1 NE30.11- 78.4 79.7 72.7---
2024-05-27 08:00 pmESE 7.8 9.7----30.11+0.01 78.6 79.7 73.2---
2024-05-27 07:50 pmESE 7.8 9.7 2.3 86.1ESE30.11- 78.6 79.7 73.0---
2024-05-27 07:40 pmESE 5.8 7.8----30.11- 78.6 79.7 72.7---
2024-05-27 07:20 pmESE 5.8 7.8 2.3 86.1 SE30.11- 79.0 79.7 72.7---
2024-05-27 07:10 pmESE 5.8 7.8----30.11- 79.0 79.9 72.5---
2024-05-27 07:00 pmESE 5.8 7.8----30.11+0.02 79.2 79.9 72.7---
2024-05-27 06:50 pmESE 5.8 7.8 2.3 86.1ESE30.10- 79.2 79.9 72.9---
2024-05-27 06:40 pmESE 5.8 7.8----30.10- 79.5 80.1 73.0---
2024-05-27 06:30 pmESE 3.9 5.8----30.11- 80.2 80.1 72.9---
2024-05-27 06:20 pmESE 1.9 3.9 2.3 76.0 SE30.10- 80.2 80.1 72.5---
2024-05-27 06:10 pm SE 1.9 5.8 2.3-6.0 SE30.10- 79.9 80.1 72.3---
2024-05-27 06:00 pm SE 3.9 3.9----30.10+0.02 79.9 79.9 72.9---
2024-05-27 05:50 pm SE 3.9 3.9 2.3 86.2 SE30.10- 79.7 79.9 72.7---
2024-05-27 05:40 pm SE 3.9 5.8 2.3-6.2 SE30.10- 79.5 80.1 72.9---
2024-05-27 05:30 pm SE 3.9 5.8----30.10- 79.3 79.9 72.7---
2024-05-27 05:20 pm SE 3.9 5.8 2.3 86.2 SE30.09- 79.3 79.9 73.0---
2024-05-27 05:10 pm SE 5.8 7.8 2.3-6.2 SE30.09- 79.2 79.7 72.9---
2024-05-27 05:00 pm SE 5.8 7.8----30.10+0.02 79.3 79.9 73.0---
2024-05-27 04:50 pm SE 5.8 5.8 2.0 86.2 SE30.10- 79.3 79.7 73.2---
2024-05-27 04:40 pm SE 5.8 7.8----30.10- 79.2 79.7 73.0---
2024-05-27 04:30 pm SE 5.8 7.8----30.10- 79.2 79.5 73.2---
2024-05-27 04:20 pm SE 5.8 7.8 2.3 86.5 SE30.09- 79.0 79.5 73.2---
2024-05-27 04:10 pmSSE 5.8 7.8 2.3-6.5 SE30.09- 79.0 79.9 73.6---
2024-05-27 04:00 pm SE 5.8 7.8----30.09+0.01 79.0 79.7 73.6---
2024-05-27 03:50 pmSSE 5.8 7.8 2.3 86.5 SE30.08- 79.0 79.7 73.6---

Detailed Wave Summary
for 41047 as of (3:40 pm EDT)
1940 GMT on 05/28/2024:

These wave data are displayed in rounded times.

     

Click on the graph icon in the table below to see a time series plot of the last five days of that observation.

5-day plot - Significant Wave Height Significant Wave Height (WVHT): 2.6 ft
5-day plot - Swell Height Swell Height (SwH): 2.3 ft
5-day plot - Swell Period Swell Period (SwP): 9.1 sec
5-day plot - Swell Direction Swell Direction (SwD):ESE
5-day plot - Wind Wave Height Wind Wave Height (WWH): 1.0 ft
5-day plot - Wind Wave Period Wind Wave Period (WWP): 3.3 sec
5-day plot - Wind Wave Direction Wind Wave Direction (WWD): SE
5-day plot - Average Wave Period Average Wave Period (APD): 5.2 sec
Previous observations
TIME
(EDT)
5-day plot - Wave Height
WVHT
ft
5-day plot - Swell Height
SwH
ft
5-day plot - Swell Period
SwP
sec
5-day plot - Swell Direction
SwD
 
5-day plot - Wind Wave Height
WWH
ft
5-day plot - Wind Wave Period
WWP
sec
5-day plot - Wind Wave Direction
WWD
 
5-day plot - Wave Steepness
STEEPNESS
 
5-day plot - Average Wave Period
APD
sec
2024-05-28 03:10 pm 2.3 2.3 8.3 SE 1.0 3.6 SE N/A 5.1
2024-05-28 02:40 pm 2.3 2.0 7.7 SE 1.3 4.0 SSE N/A 4.9
2024-05-28 02:10 pm 2.3 2.3 7.7 E 1.3 3.6 SE N/A 4.9
2024-05-28 01:40 pm 2.6 2.3 9.1 SE 1.3 3.7 SE N/A 5.0
2024-05-28 01:10 pm 2.3 2.3 7.7ESE 1.0 4.0 SSE N/A 5.1
2024-05-28 12:40 pm 2.3 2.0 12.1 NE 1.3 4.0 SE N/A 4.8
2024-05-28 12:10 pm 2.3 2.0 10.8ENE 1.3 3.8 SSE N/A 4.6
2024-05-28 11:40 am 2.3 2.0 7.7ESE 1.3 2.9 SE N/A 4.6
2024-05-28 11:10 am 2.3 2.0 12.1 NE 1.3 3.7 SE N/A 4.5
2024-05-28 10:40 am 2.3 2.0 7.7 SE 1.6 3.8 SSE N/A 4.7
2024-05-28 10:10 am 2.3 2.0 12.1 SW 1.3 3.8 SSE N/A 4.7
2024-05-28 09:40 am 2.3 1.6 12.1 NE 1.6 4.0 SSE N/A 4.3
2024-05-28 09:10 am 2.3 1.6 11.4 NE 1.6 4.2 SSE N/A 4.6
2024-05-28 08:40 am 2.3 1.6 11.4 NE 1.6 3.7 SSE N/A 4.5
2024-05-28 08:10 am 2.3 1.6 7.7ESE 1.6 3.7 SSE N/A 4.5
2024-05-28 07:40 am 2.3 1.6 8.3 SE 1.6 3.6 SE N/A 4.4
2024-05-28 07:10 am 2.3 1.6 7.7ESE 1.3 3.6 SE N/A 4.4
2024-05-28 06:40 am 2.3 2.0 7.7 SE 1.6 3.7 SSE N/A 4.4
2024-05-28 06:10 am 2.3 2.0 12.1ENE 1.6 3.7 SSE N/A 4.6
2024-05-28 05:40 am 2.3 2.0 7.7ESE 1.6 3.6 SSE N/A 4.6
2024-05-28 05:10 am 2.3 1.6 11.4ENE 1.3 3.3 SE N/A 4.6
2024-05-28 04:40 am 2.3 1.6 7.7 SE 1.6 3.6 SSE N/A 4.4
2024-05-28 04:10 am 2.3 2.0 11.4ENE 1.3 3.6 SSE N/A 4.7
2024-05-28 03:40 am 2.3 1.6 7.7 SE 1.3 3.3 SSE N/A 4.2
2024-05-28 03:10 am 2.6 2.0 7.7 SE 1.6 3.6 SSE N/A 4.5
2024-05-28 02:40 am 2.3 1.6 7.1 SE 1.6 3.2 SSE N/A 4.5
2024-05-28 02:10 am 2.3 2.0 7.7 SE 1.3 3.6 SSE N/A 4.5
2024-05-28 01:40 am 2.6 2.0 7.7 SE 1.3 3.4 SSE N/A 4.8
2024-05-28 01:10 am 2.3 2.0 7.7ESE 1.3 3.1 SE N/A 4.6
2024-05-28 12:40 am 2.3 2.0 7.7 SE 1.3 3.2 SE N/A 4.5
2024-05-28 12:10 am 2.6 2.0 7.7 SE 1.6 3.0 SE N/A 4.6
2024-05-27 11:40 pm 2.3 2.0 7.1 SE 1.3 3.1 SSE N/A 4.6
2024-05-27 11:10 pm 2.3 2.0 7.7ESE 1.3 2.9 SE N/A 4.9
2024-05-27 10:40 pm 2.3 2.0 7.7ESE 1.0 5.0 SE N/A 5.4
2024-05-27 10:10 pm 2.3 2.0 7.7 SE 1.0 5.0 ENE N/A 5.4
2024-05-27 09:40 pm 2.0 2.0 7.7 SE 1.0 4.5 SE N/A 5.5
2024-05-27 09:10 pm 2.3 2.0 7.1 SE 0.7 2.9 SE N/A 5.9
2024-05-27 08:40 pm 2.0 2.0 7.7ESE 0.7 2.9 SSE N/A 5.7
2024-05-27 08:10 pm 2.0 2.0 12.9 NE 0.7 3.1 S N/A 6.1
2024-05-27 07:40 pm 2.3 2.3 7.7ESE 0.7 3.3 S N/A 6.1
2024-05-27 07:10 pm 2.3 2.0 7.7 SE 0.7 3.0 SSE N/A 6.1
2024-05-27 06:40 pm 2.3 2.3 7.7ESE 0.7 2.7 SSE N/A 6.1
2024-05-27 06:10 pm 2.3 2.0 7.1 SE 0.7 2.7 SSE N/A 6.0
2024-05-27 05:40 pm 2.3 2.0 7.7 SE 0.7 2.6 SSE N/A 6.2
2024-05-27 05:10 pm 2.3 2.3 7.7 SE 0.7 2.7 SSE N/A 6.2
2024-05-27 04:40 pm 2.0 2.0 7.7 SE 0.7 3.1 SE N/A 6.2
2024-05-27 04:10 pm 2.3 2.3 7.7 SE 0.7 2.9 SE N/A 6.5

Plot of wave energy versus frequency (and period)